Terug naar catalogus

PAKSAT 1

ANATOLIA 1

ActiefCommunicatieGEO
NORAD 23779·PAYLOAD·🇵🇰 Pakistan

Gelanceerd Feb 1, 1996 vanaf Cape Canaveral Space Force Station

Loading…

TLE

VersSource: Space-Track

Epoch: Sep 14, 2026, 11:54 UTC

1 23779U 96006A   26257.49596293 -.00000023  00000-0  00000-0 0  9994
2 23779  11.0420  45.0006 0008594 177.3140 206.2154  0.99588464111749

Volg PAKSAT 1 in realtime met AllMySat

Download on the App Store